Wetbulb
54.71 55.28 55.82 57.00 57.75 58.39 59.84 60.46 60.69 60.66 60.19 59.60 58.78 59.38 59.53 59.33 58.50 54.62 48.50 52.66 55.62 60.30 58.81 54.64 54.47 52.59 51.86 49.16 51.87 49.00 40.59 38.16 41.90 43.08 45.70 50.79 51.02 52.72 54.63 54.31 54.39 57.09 56.58 57.98 63.65
53.78 53.91 54.28 55.65 56.97 57.80 58.58 59.64 60.05 60.24 60.48 60.10 59.23 59.12 58.60 58.89 52.99 49.49 56.26 57.62 58.56 60.01 52.33 50.13 49.28 51.35 47.01 46.98 48.66 43.37 37.37 40.11 44.76 44.52 45.19 51.51 51.95 52.85 52.03 51.91 53.41 56.32 61.01 62.89 62.90
54.24 53.44 53.74 54.49 55.54 57.02 57.80 58.70 59.06 59.72 59.80 60.17 59.82 59.36 58.76 56.56 48.23 48.18 58.86 58.11 58.73 59.23 53.38 52.40 52.69 50.92 45.88 46.13 46.50 44.64 39.84 43.04 45.33 47.81 49.06 49.79 50.66 52.68 51.61 49.05 53.20 54.55 59.01 60.85 60.92
53.42 52.95 53.21 53.64 53.87 55.88 56.77 57.78 57.54 58.90 59.53 59.57 59.63 59.08 58.34 52.76 33.25 53.08 59.85 58.57 58.86 57.01 52.40 51.35 50.28 46.23 44.05 42.65 46.50 42.11 45.59 44.88 47.59 48.88 48.52 46.75 48.81 50.44 51.01 51.12 55.06 58.48 60.89 60.51 59.69
53.15 52.94 53.17 52.71 52.45 52.89 55.51 56.08 57.06 57.44 58.87 59.51 59.36 59.04 53.86 45.31 44.71 54.24 59.14 60.08 57.72 54.54 48.10 47.92 46.88 45.36 42.04 43.42 44.59 43.11 44.35 46.06 48.05 48.18 46.66 48.75 46.96 46.68 48.91 52.13 56.47 58.60 60.58 59.90 59.69
52.77 52.95 52.78 52.74 52.30 52.10 53.81 54.93 56.33 56.73 56.91 58.78 59.33 58.84 50.38 41.34 52.24 53.12 53.34 55.26 54.06 49.98 48.28 46.56 46.66 48.70 44.64 44.15 42.66 45.07 46.05 45.98 46.88 47.20 47.24 45.66 44.82 46.95 49.09 51.73 54.54 57.76 58.39 59.44 59.43
51.49 52.16 52.70 52.71 52.09 51.55 53.19 54.58 55.09 56.32 56.44 57.29 58.94 54.87 48.47 44.87 52.50 52.42 52.66 53.15 53.19 49.62 47.59 49.44 49.23 47.42 46.60 42.65 47.06 45.60 41.95 43.26 44.76 46.25 45.21 47.14 43.17 44.03 48.48 48.87 50.47 54.01 56.88 58.19 59.61
51.07 51.37 52.25 52.52 51.71 51.49 52.31 54.16 54.18 54.95 55.90 56.38 58.06 53.32 46.22 54.69 52.33 52.19 52.21 50.76 54.01 53.91 52.98 50.69 54.15 50.22 46.04 47.50 44.86 41.34 40.45 35.18 42.38 45.53 45.72 43.95 35.44 44.18 47.22 47.40 47.50 49.73 50.75 54.89 58.22
50.87 50.80 51.80 52.19 52.05 51.60 51.48 53.13 53.88 53.97 55.52 56.44 53.34 50.00 43.90 53.84 50.06 51.69 50.89 49.04 50.64 51.84 53.01 52.48 53.49 47.42 45.86 40.17 36.38 36.98 29.89 33.52 37.01 44.34 44.37 42.40 36.98 43.02 43.93 45.97 46.05 45.51 47.81 50.79 52.09
50.77 50.67 50.70 51.62 52.13 51.41 51.11 51.81 53.68 54.05 53.89 54.32 52.25 44.97 46.77 45.07 50.58 51.37 51.51 50.10 47.58 48.38 48.17 48.25 48.01 40.96 40.58 36.06 27.39 32.43 31.88 32.42 32.34 39.70 41.32 39.59 38.86 42.75 43.81 42.14 43.25 43.51 44.10 44.64 46.32
50.62 49.39 50.11 50.49 51.50 51.87 49.29 48.17 44.15 44.75 48.21 43.67 44.71 43.62 45.44 49.02 52.50 49.58 50.41 47.47 46.93 43.90 37.80 41.78 37.98 33.56 38.62 40.20 39.71 37.30 34.83 32.81 35.26 40.67 38.61 36.45 37.05 40.49 43.74 39.88 41.47 41.77 42.60 43.23 44.34
51.02 49.43 49.17 49.93 50.60 51.54 49.52 42.95 44.82 46.33 40.84 46.35 46.62 46.17 48.29 48.60 44.14 47.46 50.46 43.40 41.21 34.96 37.86 35.42 33.89 38.78 41.69 42.30 40.33 37.30 35.30 33.82 37.87 40.64 38.12 35.51 35.27 38.51 40.27 41.64 40.60 41.83 41.34 42.62 43.37
50.96 50.08 48.80 49.40 50.70 48.36 45.93 44.37 50.56 49.34 39.82 42.32 45.07 45.29 45.21 47.37 43.35 44.04 47.17 43.43 39.97 36.05 34.77 31.11 35.25 40.99 39.87 38.73 37.59 37.13 34.94 34.93 35.66 37.99 38.08 34.91 31.93 35.43 38.81 41.02 41.83 42.71 42.56 43.79 44.71
50.73 50.28 48.66 49.06 44.40 45.46 43.27 48.30 49.86 48.80 31.66 34.94 40.81 43.65 45.68 46.13 41.68 48.28 48.51 43.78 42.20 36.87 35.47 32.95 37.37 37.16 36.41 35.78 37.50 32.83 38.40 37.94 37.11 31.63 26.82 34.02 22.64 30.81 35.29 37.09 39.19 41.85 41.79 42.43 43.61
50.58 50.15 48.92 48.20 43.08 41.83 45.47 49.53 49.19 44.20 18.93 35.76 40.34 48.44 45.85 42.18 42.42 43.36 48.84 45.24 39.88 38.57 37.13 31.45 33.20 32.59 33.19 35.19 38.13 35.64 39.95 37.51 36.68 31.65 29.64 28.55 24.20 28.27 33.40 33.35 36.66 38.77 41.24 42.98 43.06
50.35 50.09 48.90 45.29 43.73 45.54 47.64 48.00 44.47 27.05 19.58 34.15 40.69 40.20 39.26 40.63 41.54 43.62 43.23 46.20 44.73 40.29 38.85 35.92 38.72 35.22 34.68 37.61 39.17 39.78 36.72 35.56 33.49 29.87 18.78 27.52 26.36 23.65 31.11 34.70 35.30 36.45 37.65 40.24 40.93
50.20 49.89 46.83 46.62 40.11 46.49 48.38 42.93 26.38 20.64 33.91 31.51 35.18 38.44 37.25 36.44 38.17 39.70 38.53 37.62 35.06 30.81 31.15 33.10 33.68 36.40 37.34 34.11 37.03 36.32 30.97 19.02 16.82 15.42 16.97 27.36 26.10 29.99 32.99 36.18 36.75 36.09 37.22 38.62 40.09
49.84 48.70 46.38 46.15 46.39 46.01 44.82 33.23 21.83 28.16 28.13 35.86 36.67 36.90 33.68 37.24 36.91 37.85 36.29 34.11 37.61 35.07 31.45 28.61 25.84 33.98 37.62 34.64 32.45 33.39 30.82 21.47 12.98 17.03 19.71 26.61 22.92 28.98 35.81 37.67 37.93 38.47 39.12 39.63 38.51
49.27 42.10 41.50 42.76 46.46 45.08 37.26 24.36 24.35 23.71 32.77 33.21 35.50 32.10 32.44 35.61 35.67 35.87 35.58 34.09 36.82 37.28 29.80 27.81 28.23 36.22 37.28 38.45 38.57 33.64 29.39 32.91 24.08 16.28 17.09 22.43 27.38 33.97 36.30 36.03 36.07 36.25 37.24 36.75 37.77
39.67 38.08 38.22 44.34 44.85 40.68 30.95 27.21 20.12 32.00 34.73 34.93 29.09 31.63 20.51 31.99 31.84 32.92 32.80 37.38 36.33 38.96 37.83 34.90 26.97 34.15 36.14 38.16 37.53 36.52 37.35 28.18 22.83 9.36 11.02 19.18 21.78 25.26 30.72 34.61 35.48 35.41 35.53 35.64 37.65
37.96 28.87 37.68 45.64 44.29 34.75 25.29 28.38 24.90 33.47 35.38 32.78 30.50 30.35 30.91 29.97 33.50 32.15 32.46 36.08 38.81 37.83 39.33 36.85 32.69 29.20 34.38 31.82 31.76 32.71 32.03 32.14 30.67 25.39 19.40 16.86 20.87 29.02 31.40 33.66 33.58 34.19 35.85 35.99 37.35
37.86 21.55 39.94 43.12 31.19 31.87 27.08 30.61 34.21 32.32 35.38 33.96 32.32 33.55 31.60 32.35 32.19 33.10 32.19 33.67 39.74 38.84 34.49 37.14 34.82 26.53 29.42 34.82 37.13 35.95 33.75 33.78 26.04 22.58 23.13 23.72 22.27 33.69 31.81 33.18 34.86 34.71 36.01 36.73 37.88
32.62 32.46 41.13 38.36 17.33 16.69 25.48 27.12 30.26 31.43 31.81 31.01 28.99 31.83 35.60 32.46 27.19 32.58 33.13 37.70 39.27 37.87 35.40 37.48 32.10 25.82 27.33 31.48 33.84 32.12 33.77 35.48 33.01 29.76 24.60 19.60 22.06 34.23 33.42 33.62 33.39 34.04 34.61 36.49 37.68
32.84 21.02 32.12 36.32 31.18 23.16 20.72 23.19 27.67 33.16 32.54 33.04 31.17 32.69 30.86 29.15 32.17 30.30 31.49 37.02 38.80 39.22 41.32 40.00 32.97 28.85 25.07 28.11 31.57 29.86 32.12 33.81 32.99 26.02 25.23 25.42 24.97 30.41 31.28 32.40 33.84 34.84 33.88 35.03 37.92
32.26 28.07 27.99 16.54 27.55 28.76 26.64 23.64 22.18 23.28 33.05 34.10 29.91 29.00 27.48 21.41 27.42 26.37 31.27 32.54 38.01 39.67 39.55 37.70 25.62 29.18 30.86 31.83 33.08 31.60 30.95 32.32 30.86 31.96 28.43 29.89 29.56 33.26 34.35 34.81 34.51 34.52 35.65 36.40 37.40
31.24 29.42 28.74 28.94 24.37 24.59 25.69 19.56 23.90 27.35 29.72 29.98 29.09 30.26 31.18 26.38 26.90 22.27 30.44 30.82 30.59 36.00 35.72 37.05 29.62 29.82 21.53 29.46 29.89 27.85 31.95 32.58 32.96 32.82 32.25 32.65 31.64 38.42 39.19 37.30 35.06 37.50 37.34 37.13 37.23
36.60 37.49 31.64 25.65 21.67 21.91 20.47 21.12 25.16 29.21 30.89 32.81 32.09 31.10 30.64 31.41 34.01 35.19 35.71 34.89 33.85 31.32 29.32 31.26 30.08 27.46 22.91 27.11 27.76 22.18 27.57 30.18 31.47 34.08 33.20 28.61 34.03 38.57 37.13 37.47 37.55 37.56 38.10 38.22 38.69
MSLP
1018.08 1017.96 1017.87 1017.65 1017.29 1017.04 1016.85 1016.81 1016.96 1017.12 1017.16 1017.41 1017.67 1017.75 1017.70 1017.55 1017.32 1017.13 1016.77 1015.37 1015.28 1015.18 1015.08 1015.04 1014.84 1014.54 1014.25 1014.03 1013.61 1013.68 1014.61 1014.54 1013.51 1012.79 1012.14 1011.70 1011.54 1011.85 1012.09 1012.52 1013.10 1013.80 1014.32 1014.48 1015.74
1018.03 1017.86 1017.74 1017.44 1017.10 1016.85 1016.77 1016.61 1016.63 1016.82 1016.77 1016.98 1017.38 1017.55 1017.56 1017.47 1017.37 1016.52 1015.40 1015.15 1015.19 1015.27 1015.18 1015.13 1015.00 1014.72 1014.60 1014.12 1013.98 1014.12 1014.55 1013.99 1012.97 1012.54 1012.26 1011.67 1011.47 1011.77 1012.49 1013.02 1014.05 1014.70 1015.27 1015.38 1016.06
1017.64 1017.74 1017.43 1017.29 1016.99 1016.88 1016.73 1016.65 1016.46 1016.59 1016.48 1016.53 1017.11 1017.35 1017.38 1017.35 1017.25 1015.65 1015.36 1015.19 1015.05 1015.23 1015.30 1015.20 1015.00 1014.96 1014.81 1014.23 1014.01 1014.01 1014.05 1013.29 1013.18 1012.78 1012.42 1012.10 1012.02 1011.91 1012.48 1013.34 1013.63 1014.54 1015.69 1016.19 1016.50
1017.29 1017.26 1017.46 1017.20 1016.96 1016.81 1016.68 1016.54 1016.57 1015.91 1016.08 1016.31 1016.81 1017.16 1017.21 1017.21 1016.84 1015.54 1015.38 1015.34 1015.16 1015.20 1015.31 1015.14 1015.04 1015.09 1014.85 1014.40 1013.74 1013.87 1013.41 1013.25 1013.12 1013.12 1012.84 1012.80 1012.78 1012.47 1012.58 1012.93 1012.79 1013.70 1014.61 1015.89 1016.61
1017.06 1017.03 1017.19 1017.03 1016.81 1016.68 1016.54 1016.34 1016.24 1016.32 1015.96 1016.11 1016.46 1016.97 1017.22 1017.12 1016.19 1015.42 1015.31 1015.22 1015.29 1015.25 1015.27 1015.20 1014.98 1014.86 1014.77 1014.34 1013.99 1013.84 1013.51 1013.30 1013.25 1013.18 1013.32 1013.28 1013.14 1013.03 1012.83 1012.82 1012.91 1013.67 1014.63 1015.48 1016.16
1016.91 1016.81 1016.55 1016.51 1016.67 1016.53 1016.39 1016.54 1016.40 1016.06 1015.89 1015.81 1016.19 1016.71 1016.98 1016.55 1015.12 1015.26 1015.31 1015.33 1015.22 1015.12 1015.15 1015.17 1014.86 1014.70 1014.77 1014.44 1014.18 1013.80 1013.67 1013.61 1013.54 1013.54 1013.54 1013.70 1013.74 1013.53 1012.91 1012.94 1013.32 1013.85 1014.62 1015.16 1015.58
1016.85 1016.47 1016.27 1016.26 1016.44 1016.46 1016.38 1016.21 1015.95 1016.13 1016.04 1015.73 1016.05 1016.32 1016.41 1015.37 1014.98 1015.13 1015.29 1015.45 1015.22 1015.17 1015.22 1015.00 1014.65 1014.78 1014.59 1014.53 1014.32 1014.19 1014.29 1014.15 1014.06 1014.04 1014.13 1014.16 1014.50 1013.79 1012.92 1013.22 1013.82 1014.07 1014.17 1014.77 1015.05
1016.70 1016.42 1016.15 1015.95 1016.10 1016.20 1016.46 1016.26 1016.03 1015.80 1015.63 1015.66 1015.95 1016.16 1015.64 1014.99 1015.03 1015.13 1015.17 1015.37 1015.20 1015.06 1015.03 1014.74 1014.66 1015.02 1014.87 1014.71 1014.83 1014.97 1015.02 1014.94 1014.37 1014.30 1014.44 1014.68 1014.45 1013.84 1013.27 1013.53 1013.75 1014.16 1014.25 1014.23 1014.40
1016.57 1016.40 1016.05 1015.84 1015.80 1016.33 1016.11 1016.22 1015.84 1015.77 1015.54 1015.81 1015.91 1015.84 1015.65 1014.99 1014.93 1014.75 1014.92 1015.31 1015.19 1015.15 1015.06 1014.81 1015.16 1015.42 1015.18 1015.49 1015.97 1015.86 1015.64 1015.38 1014.90 1014.29 1014.60 1014.93 1014.80 1013.93 1013.76 1013.93 1013.89 1014.02 1014.20 1013.99 1013.79
1016.43 1016.37 1016.19 1015.90 1015.77 1015.74 1015.98 1016.15 1015.65 1015.42 1015.52 1015.51 1015.70 1016.05 1015.35 1014.29 1014.17 1014.52 1014.86 1015.09 1015.38 1015.46 1015.52 1015.62 1015.99 1015.71 1015.63 1015.76 1016.04 1016.06 1016.04 1015.57 1015.14 1014.56 1014.78 1015.08 1014.98 1014.47 1014.08 1014.31 1014.23 1013.94 1014.00 1013.92 1013.73
1016.16 1016.22 1016.16 1015.96 1015.64 1015.67 1016.27 1016.16 1016.31 1016.13 1015.53 1014.62 1014.30 1014.10 1013.91 1013.77 1013.68 1014.21 1014.64 1015.14 1015.51 1015.85 1016.19 1016.12 1016.38 1015.71 1015.59 1015.47 1015.25 1015.54 1015.57 1015.61 1014.93 1014.74 1015.01 1015.44 1015.58 1015.03 1014.32 1014.43 1014.43 1014.19 1013.76 1013.64 1013.54
1015.89 1015.96 1015.93 1015.80 1015.69 1015.56 1016.11 1016.24 1015.62 1015.63 1015.00 1014.45 1014.45 1014.08 1014.10 1014.11 1014.34 1014.30 1014.61 1015.23 1015.62 1016.15 1016.50 1016.64 1015.97 1015.98 1015.99 1015.77 1015.50 1015.47 1015.79 1015.63 1015.35 1015.33 1015.48 1015.87 1015.79 1015.10 1014.66 1014.12 1013.91 1013.75 1013.71 1013.44 1013.18
1015.72 1015.75 1015.82 1015.58 1015.37 1015.29 1015.46 1015.57 1015.84 1015.38 1015.29 1014.06 1013.95 1014.12 1014.34 1014.76 1014.26 1014.00 1014.31 1014.84 1015.32 1016.15 1016.33 1016.41 1015.86 1015.57 1015.74 1015.52 1015.37 1015.24 1015.56 1015.58 1015.90 1016.19 1016.13 1016.27 1015.94 1015.14 1013.85 1013.30 1013.12 1012.90 1012.66 1012.64 1012.50
1015.44 1015.57 1015.59 1015.61 1015.83 1015.21 1015.37 1015.30 1015.76 1016.05 1015.42 1013.75 1013.29 1013.22 1014.03 1014.37 1014.21 1013.67 1013.92 1014.54 1015.07 1015.61 1016.38 1016.46 1015.69 1015.58 1015.35 1015.16 1014.95 1015.07 1015.10 1015.69 1016.37 1016.99 1017.17 1016.77 1016.26 1014.94 1013.67 1012.84 1012.52 1012.26 1012.25 1011.85 1011.62
1015.13 1015.30 1015.43 1015.54 1015.73 1015.31 1014.65 1014.65 1015.84 1016.30 1014.17 1012.09 1012.23 1012.20 1013.07 1013.93 1013.46 1013.26 1013.51 1014.21 1014.45 1014.79 1015.67 1015.58 1015.34 1015.23 1015.19 1014.87 1015.02 1015.10 1015.11 1016.05 1016.96 1017.82 1018.13 1017.81 1017.55 1014.36 1013.36 1012.75 1011.97 1011.30 1011.11 1011.00 1011.04
1014.83 1015.00 1015.24 1015.70 1015.71 1015.00 1014.60 1014.97 1016.14 1015.80 1013.26 1012.13 1011.60 1011.93 1012.94 1013.34 1013.51 1013.47 1013.74 1014.34 1014.30 1014.71 1015.01 1015.30 1015.15 1014.90 1014.39 1014.50 1014.91 1015.37 1016.17 1017.12 1018.05 1019.13 1019.31 1018.15 1017.56 1014.48 1013.00 1011.77 1011.02 1010.50 1010.69 1011.01 1011.12
1014.62 1014.85 1015.16 1015.41 1015.24 1014.61 1014.82 1015.50 1016.10 1014.93 1013.17 1012.48 1011.74 1011.90 1012.30 1012.98 1013.67 1013.50 1013.40 1014.08 1014.04 1014.64 1014.87 1015.27 1015.23 1014.80 1014.36 1014.57 1015.02 1015.65 1016.96 1019.18 1020.25 1020.68 1019.28 1017.87 1017.30 1013.52 1012.24 1011.15 1010.53 1010.52 1010.97 1010.85 1010.78
1014.48 1014.70 1014.84 1014.94 1014.75 1014.63 1015.02 1015.51 1014.85 1013.71 1013.40 1012.80 1011.99 1012.21 1012.44 1012.88 1013.43 1013.63 1013.69 1013.75 1014.07 1013.79 1014.38 1014.92 1015.64 1014.66 1014.30 1014.12 1014.39 1015.38 1016.41 1018.03 1019.44 1020.21 1019.40 1018.23 1016.16 1013.00 1011.29 1010.56 1010.42 1010.28 1010.56 1010.66 1010.87
1014.24 1014.89 1015.04 1014.65 1014.52 1014.69 1015.48 1014.72 1013.93 1013.75 1013.32 1012.95 1012.50 1012.53 1012.77 1012.65 1013.19 1013.54 1013.60 1013.63 1013.47 1013.60 1013.66 1014.34 1014.55 1013.90 1013.93 1013.74 1014.09 1015.30 1015.79 1016.88 1018.38 1020.01 1019.49 1017.66 1015.52 1013.06 1011.31 1010.89 1010.71 1010.58 1010.52 1010.60 1010.84
1014.50 1015.03 1014.99 1014.49 1014.63 1015.32 1015.75 1015.07 1014.63 1013.53 1012.93 1013.05 1012.88 1012.78 1012.61 1012.73 1013.28 1013.16 1013.42 1013.12 1013.10 1012.99 1012.98 1013.87 1014.38 1013.94 1013.94 1014.11 1014.08 1014.10 1015.38 1016.72 1017.96 1019.30 1018.97 1016.97 1015.49 1013.25 1011.82 1011.06 1010.95 1010.90 1010.99 1010.96 1011.03
1014.75 1015.26 1015.10 1014.76 1014.98 1015.78 1015.95 1015.24 1014.63 1014.03 1013.29 1013.48 1013.42 1013.18 1013.02 1013.12 1013.08 1012.96 1012.90 1012.94 1012.78 1012.62 1013.18 1013.86 1014.53 1015.00 1014.43 1013.81 1013.36 1014.51 1014.92 1015.65 1016.56 1017.48 1017.34 1016.41 1014.30 1012.45 1011.55 1010.94 1011.23 1011.35 1011.36 1011.42 1011.59
1015.10 1015.73 1015.10 1015.05 1015.91 1015.90 1015.65 1015.25 1014.70 1013.78 1013.57 1013.58 1013.58 1013.30 1013.68 1013.22 1013.02 1012.87 1012.27 1011.66 1011.83 1011.99 1012.95 1014.00 1014.49 1014.64 1013.97 1013.73 1013.44 1013.33 1013.58 1014.26 1015.11 1016.13 1016.37 1015.88 1013.87 1011.90 1011.19 1011.08 1011.05 1011.45 1011.48 1011.60 1011.88
1015.56 1015.73 1015.08 1015.18 1016.24 1016.42 1016.02 1015.58 1015.32 1014.55 1013.85 1013.80 1013.96 1013.77 1013.38 1013.76 1013.46 1012.74 1012.36 1011.37 1011.53 1012.02 1012.02 1013.33 1013.98 1014.32 1014.68 1014.89 1014.10 1013.60 1013.67 1013.70 1014.06 1014.79 1014.94 1014.99 1013.34 1012.13 1011.66 1011.60 1011.48 1011.42 1011.59 1011.67 1012.03
1015.97 1016.15 1015.85 1015.61 1015.90 1016.38 1016.63 1016.02 1015.39 1014.65 1014.18 1013.43 1013.70 1013.75 1013.78 1013.83 1013.92 1013.40 1012.90 1011.82 1011.24 1011.68 1011.90 1012.48 1013.26 1013.31 1013.22 1013.19 1013.52 1014.03 1013.68 1013.56 1013.73 1014.35 1014.15 1013.73 1013.01 1012.28 1011.96 1011.88 1011.69 1011.46 1011.53 1011.57 1011.64
1015.95 1016.13 1016.22 1016.50 1016.27 1016.40 1016.40 1015.86 1015.26 1015.06 1014.70 1014.20 1013.60 1013.16 1013.31 1013.76 1013.67 1013.34 1012.85 1013.15 1011.95 1012.21 1012.35 1012.67 1013.28 1013.48 1013.23 1013.70 1013.60 1013.41 1013.66 1013.78 1013.76 1013.67 1014.16 1013.07 1012.71 1012.25 1011.66 1011.64 1011.46 1011.57 1011.56 1011.62 1011.68
1015.65 1016.16 1016.37 1016.29 1016.11 1016.31 1016.17 1015.65 1015.03 1014.79 1014.60 1013.92 1013.68 1013.34 1013.21 1013.07 1012.66 1012.41 1012.41 1012.34 1012.58 1012.25 1012.83 1013.08 1013.13 1013.74 1014.00 1013.86 1013.96 1014.11 1013.89 1013.91 1013.91 1013.49 1013.35 1012.56 1011.69 1011.22 1011.01 1011.09 1011.29 1011.38 1011.40 1011.53 1011.63
1015.11 1015.17 1015.52 1015.65 1015.89 1016.00 1015.35 1014.83 1014.20 1013.87 1013.31 1012.78 1012.50 1012.86 1012.54 1011.68 1011.98 1012.64 1012.53 1012.60 1012.68 1012.71 1013.18 1013.70 1014.05 1014.22 1014.28 1014.38 1014.52 1014.40 1013.64 1013.27 1012.98 1012.72 1012.43 1011.99 1010.77 1010.83 1010.77 1010.76 1010.79 1010.97 1010.85 1010.89 1011.08
Wind_Speed
13 13 17 16 16 15 15 16 13 10 8 7 7 6 6 7 9 2 5 4 1 4 5 5 5 6 5 3 1 2 4 3 5 4 3 4 6 3 2 7 4 4 4 8 15
11 16 16 17 15 14 15 11 14 11 9 7 7 5 3 6 3 7 7 4 1 3 1 1 3 4 2 3 2 5 5 9 4 0 1 6 7 8 5 5 4 7 10 14 13
13 10 15 14 13 15 13 10 9 12 9 8 6 4 1 3 3 3 2 2 0 1 2 2 3 2 4 3 4 6 7 4 3 1 5 1 5 3 9 3 7 11 12 9 10
12 11 12 13 12 14 12 10 13 7 8 9 8 6 2 0 3 2 3 1 2 1 1 3 3 2 4 6 5 4 7 3 0 3 3 3 7 5 5 5 6 17 20 12 12
12 11 13 10 9 11 12 14 11 16 6 9 10 8 3 2 7 2 1 2 2 2 3 3 4 4 5 4 3 5 3 1 5 4 1 3 4 1 4 6 7 15 17 16 14
13 12 10 10 8 9 14 10 15 11 14 6 12 9 3 4 3 5 3 3 3 2 3 4 2 2 3 4 6 1 3 3 3 4 1 0 3 3 5 5 7 17 14 12 14
14 14 11 11 9 5 12 11 12 12 14 11 13 7 5 10 3 5 1 3 1 2 2 5 2 1 1 2 1 1 2 0 5 5 3 4 7 8 9 2 5 9 12 12 14
14 16 13 11 9 4 9 13 9 15 10 13 11 3 5 1 4 4 3 3 3 5 3 5 4 2 1 2 4 3 2 2 5 8 3 8 7 11 9 7 9 9 8 11 14
11 14 16 11 9 11 3 16 10 12 11 13 4 4 4 5 4 6 6 4 4 3 3 0 2 4 3 6 3 2 3 5 6 9 6 7 5 6 0 8 10 8 9 9 9
8 11 13 12 11 9 8 10 11 4 5 4 5 3 4 4 4 5 5 5 3 3 2 2 3 3 3 4 7 6 4 4 7 6 5 6 6 8 7 4 10 8 8 8 7
5 9 12 12 9 11 3 2 2 3 7 5 6 3 4 0 4 5 7 5 3 4 5 4 4 9 9 9 5 4 2 5 5 3 5 6 5 10 13 3 8 8 9 8 9
7 6 11 12 11 9 3 3 5 2 5 14 4 10 4 1 4 5 10 6 6 6 4 2 11 6 7 9 12 7 5 6 4 1 4 4 10 11 9 12 9 12 9 10 8
12 6 7 13 14 1 7 9 3 4 3 5 16 5 5 4 4 12 16 6 6 7 8 6 6 17 10 8 12 12 11 6 0 4 4 1 7 10 11 14 12 12 10 10 14
12 9 6 9 5 3 5 9 4 0 3 6 10 9 6 4 6 8 11 8 6 13 6 8 12 7 9 5 7 7 7 5 4 2 3 4 7 6 6 10 12 19 14 16 16
13 10 6 3 5 2 2 8 7 2 5 7 11 10 12 10 7 9 15 7 9 9 9 9 8 8 8 7 4 4 3 6 4 4 5 3 2 8 5 5 9 13 16 17 12
11 9 3 4 2 8 3 6 5 4 7 5 7 11 15 14 5 6 8 1 2 4 4 6 2 4 9 5 6 6 8 9 6 4 2 6 5 6 5 8 5 3 5 8 10
9 7 4 2 5 6 4 5 4 6 1 4 4 11 18 10 13 6 12 12 9 8 7 3 2 2 1 7 3 6 7 3 4 2 7 4 6 11 7 8 6 3 7 6 7
8 4 2 3 5 4 4 4 8 2 3 4 5 12 13 10 11 13 8 7 8 3 9 10 4 8 5 8 8 9 9 8 9 6 4 2 9 7 10 7 3 7 8 6 4
3 0 1 4 3 2 5 5 7 6 3 2 6 10 10 8 6 9 13 12 7 12 6 7 6 4 5 5 11 7 11 7 6 4 4 5 7 11 7 7 4 4 3 1 3
4 2 2 0 5 4 1 8 3 2 3 4 4 3 6 9 11 10 15 9 9 16 2 2 3 7 4 2 2 7 8 5 2 3 4 5 5 6 4 10 8 6 5 4 5
3 4 4 4 3 2 3 4 4 5 2 4 4 2 3 5 8 11 12 8 13 14 5 2 1 2 6 10 16 6 9 5 5 5 5 2 7 7 9 6 9 7 6 6 5
2 2 3 4 1 2 2 3 5 4 2 4 2 3 3 2 8 5 8 9 16 12 11 8 3 5 11 4 3 5 8 15 6 6 4 2 7 5 2 8 11 7 6 6 6
2 2 2 4 2 3 3 4 1 5 4 5 5 2 3 1 0 5 6 6 12 16 15 12 4 3 5 4 4 8 8 16 3 3 8 7 7 1 4 7 4 6 6 7 7
2 2 3 0 3 5 0 3 3 1 5 5 4 4 3 4 3 1 8 4 9 14 12 16 6 6 7 2 7 9 14 15 15 3 3 6 3 5 3 4 5 6 4 5 7
1 3 4 3 4 4 3 2 2 2 3 3 2 7 8 4 3 7 6 10 3 1 6 10 7 6 5 5 5 4 11 16 16 11 6 18 14 13 9 8 6 6 5 6 7
4 3 1 2 1 6 8 5 7 4 6 6 4 7 4 6 9 7 5 7 6 9 2 1 3 4 2 3 6 5 11 15 18 23 21 19 18 15 13 6 6 10 6 6 7
1 1 3 4 3 6 6 7 6 8 7 6 11 5 9 19 6 5 3 2 1 6 8 6 5 2 3 4 5 4 10 11 9 15 13 19 24 17 14 11 9 9 8 8 7
Wind_Direction
311 326 332 307 303 305 303 250 234 230 220 234 246 258 293 317 316 240 241 239 119 30 360 301 303 282 317 268 175 75 77 214 252 193 211 216 135 75 190 115 56 35 129 155 145
287 301 309 322 307 303 309 304 243 232 212 215 235 249 285 331 296 249 245 202 88 31 34 350 288 297 277 228 211 115 144 215 236 315 15 193 148 145 111 130 66 72 55 114 127
272 274 302 317 325 309 305 306 287 231 220 201 213 223 285 343 293 243 69 163 48 67 255 291 314 262 211 204 203 182 188 221 7 23 16 187 145 160 126 204 176 161 148 139 140
293 280 288 305 331 324 299 295 292 283 220 206 194 186 187 262 233 75 143 190 237 226 273 201 178 173 220 207 209 178 234 201 103 41 20 18 306 179 151 180 164 164 161 150 162
311 291 254 278 311 334 317 317 291 291 255 213 184 173 166 140 255 165 191 223 217 158 212 225 171 174 190 221 197 188 241 205 138 88 9 333 310 291 231 141 102 158 159 167 171
318 312 281 265 293 322 323 296 301 272 301 236 185 156 208 205 179 145 285 313 238 206 232 227 202 250 276 247 178 219 208 212 175 163 274 19 278 25 250 134 119 151 172 171 176
351 336 306 264 271 288 317 295 317 283 274 285 196 169 215 214 71 118 80 264 167 268 254 251 304 35 172 292 207 73 63 315 178 171 218 118 305 228 235 118 177 184 177 180 189
349 343 322 270 248 258 301 301 290 313 268 281 211 145 223 168 310 226 165 275 292 288 293 301 39 265 204 271 19 98 51 178 227 164 214 131 254 237 236 222 248 203 202 187 201
347 347 338 294 246 250 257 312 290 290 273 233 188 172 228 332 228 185 165 210 230 228 295 260 35 222 115 114 52 315 198 191 302 195 151 171 244 248 262 217 237 216 223 213 216
345 341 344 324 263 258 278 292 302 268 266 216 142 164 212 196 159 172 200 205 182 162 68 136 218 216 144 130 191 183 208 222 204 217 155 195 243 275 276 314 241 236 231 235 241
319 338 335 339 305 245 278 297 311 226 211 245 180 151 121 295 118 184 175 165 176 141 172 216 176 207 200 194 222 118 179 256 221 245 140 220 229 253 268 240 257 249 232 244 250
296 309 325 331 324 249 162 220 277 324 226 236 258 210 78 214 135 201 161 164 164 177 212 152 228 204 204 204 231 267 281 274 23 167 115 236 253 252 248 255 214 229 236 236 246
294 275 308 322 324 219 186 203 314 339 290 208 215 188 165 137 211 186 171 169 174 182 197 182 228 195 218 209 205 213 217 246 165 196 271 84 279 240 251 237 239 240 221 228 223
288 279 281 322 320 196 207 218 173 291 246 216 187 205 152 152 241 169 177 158 179 204 165 227 254 177 218 235 185 216 180 201 117 122 224 139 281 291 230 235 219 235 226 228 231
288 266 250 293 295 244 261 164 139 295 195 185 158 145 144 172 119 201 175 203 204 168 165 227 197 197 212 207 202 181 146 170 118 93 40 302 330 264 268 242 230 225 222 226 230
296 260 221 321 199 243 247 147 86 228 221 187 136 161 161 184 186 135 162 63 177 206 170 207 201 200 186 172 152 153 75 47 50 79 296 199 176 256 224 222 232 219 204 222 231
296 262 141 158 246 222 187 131 207 247 323 171 148 166 172 168 170 211 170 179 167 145 184 106 213 283 193 126 98 115 115 31 4 357 230 236 213 256 259 261 205 191 153 145 111
290 179 242 217 287 210 155 198 226 239 134 274 177 172 184 153 193 186 192 174 223 185 144 173 220 173 200 176 171 170 154 153 189 199 247 93 234 254 225 249 324 167 161 134 88
181 102 270 260 258 114 226 209 182 204 160 232 163 175 188 197 146 162 194 208 196 195 145 159 239 144 194 162 148 190 200 151 100 25 59 222 291 304 273 258 186 155 138 297 331
118 135 259 175 113 74 261 255 259 234 167 116 223 182 180 170 172 194 186 183 197 202 249 105 159 199 176 106 226 185 136 220 28 142 245 261 248 236 256 243 191 179 186 110 63
65 50 267 102 87 81 223 286 235 255 133 164 170 317 226 193 197 193 183 160 199 195 170 139 145 266 137 205 177 137 190 196 141 169 193 205 256 216 239 218 147 146 144 129 109
74 24 254 116 113 207 233 295 300 159 76 100 93 121 261 245 181 179 198 210 193 171 193 187 148 178 198 340 240 189 196 189 176 219 200 163 269 302 193 134 138 145 133 146 153
137 268 290 103 156 269 294 257 262 307 161 144 183 215 178 336 212 188 212 218 184 191 181 163 206 153 162 350 335 208 213 208 166 97 205 164 248 312 156 126 144 143 154 158 152
113 330 316 311 152 141 262 243 192 45 288 149 171 151 129 168 169 310 358 287 186 206 205 165 175 212 192 190 132 206 214 223 220 166 220 219 200 190 148 164 221 226 210 182 181
77 241 174 205 213 199 159 239 177 224 233 283 290 200 167 202 162 215 177 270 181 222 223 172 205 208 251 133 150 171 197 221 225 226 227 252 257 248 259 230 229 235 233 238 234
154 190 283 259 192 174 212 233 201 192 181 200 219 239 195 201 193 210 178 166 208 207 207 273 247 160 275 226 187 191 207 224 230 222 223 238 248 245 240 254 248 240 239 230 236
205 242 136 235 197 159 216 212 226 186 232 232 210 173 193 235 238 119 126 113 227 146 200 176 160 194 228 119 105 252 203 204 216 222 217 233 245 256 258 249 245 254 254 260 256